Location: ??
(35.5052°N, 139.7262°E)
Time: 16:15:03
(UTC+00:00)

BREEZE-M DEB (TANK) - Pass Details

Date: 20 June 2021
Orbit: 311 x 15719 km, 49.5° (Epoch: 29 July)

Event Time Altitude Azimuth Distance (km) Brightness Sun altitude
Exits shadow 15:24:13 53° 261° (W) 1,410 4.1 -30.2°
Maximum altitude 15:25:52 75° 329° (NNW) 1,482 4.4 -30.2°
Drops below altitude 10° 15:48:00 10° 55° (NE) 9,203 9.1 -29.1°
Sets 16:03:09 0° 59° (ENE) 13,343 10.1 -28.1°
